Location: Tamazert
(32.6352°N, 5.2072°W)
Time: 05:20:35
(UTC+00:00)

Vanguard 2 Rocket - Pass Details

Date: 06 October 2022
Orbit: 555 x 3321 km, 32.9° (Epoch: 04 December)

Event Time Altitude Azimuth Distance (km) Brightness Sun altitude
Rises 17:15:05 0° 188° (S) 7,001 11.7 8.4°
Reaches altitude 10° 17:22:38 10° 171° (S) 6,216 11.2 6.8°
Maximum altitude 17:33:25 17° 138° (SE) 5,624 10.6 4.6°
Drops below altitude 10° 17:43:32 10° 105° (ESE) 5,893 10.5 2.4°
Sets 17:50:07 0° 88° (E) 6,516 10.5 1.1°
